Regional Weather Roundup
Issued by NWS Green Bay, WI

Home | Current Version | Previous Version | Text Only | Print | Product List | Glossary On
Versions: 1 2 3 4 5 6 7 8 9 10 11 12 13 14 15 16 17 18 19 20 21 22 23 24 25 26 27 28 29 30 31 32 33 34 35 36 37 38 39 40 41 42 43 44 45 46 47 48 49 50
000
ASUS43 KGRB 080111
RWRGRB

NORTH-CENTRAL AND NORTHEAST WISCONSIN REGIONAL WEATHER ROUNDUP
NATIONAL WEATHER SERVICE GREEN BAY WI
700 PM CST WED DEC 07 2016

WIZ005-009-010>012-018-019-080200-
NORTH CENTRAL WISCONSIN

CITY           SKY/WX    TMP DP  RH WIND       PRES   REMARKS
IRONWOOD       NOT AVBL
MANITOWISH WTR LGT SNOW  16  13  88 W13G22    29.84S WCI   2
ARBOR VITAE    LGT SNOW  19  15  83 W14       29.85S WCI   6
EAGLE RIVER    LGT SNOW  17  12  79 W16G22    29.83S WCI   2
LAND O LAKES   LGT SNOW  17  12  81 W9G17     29.83S WCI   6
RHINELANDER    CLOUDY    18  12  77 W17G29    29.87R WCI   3
PHILLIPS       FLURRIES  17  11  80 W10G21    29.89S WCI   4
ANTIGO         CLOUDY    17  11  78 W18G25    29.89S WCI   1
TOMAHAWK       CLOUDY    17  11  76 W9G17     29.91R WCI   6
MERRILL        CLOUDY    19  12  74 W17G25    29.93S WCI   3
$$

WIZ013-073-080200-
NORTHEAST WISCONSIN

CITY           SKY/WX    TMP DP  RH WIND       PRES   REMARKS
IRON MOUNTAIN  NOT AVBL
MARINETTE      NOT AVBL
OCONTO         CLOUDY    23  12  63 W16G29    29.95R WCI   9
$$

WIZ017-030-035>037-045-080200-
CENTRAL WISCONSIN

CITY           SKY/WX    TMP DP  RH WIND       PRES   REMARKS
MEDFORD        CLOUDY    16   9  73 W10G25    29.94R WCI   4
WAUSAU         FLURRIES  18  12  77 W16G23    29.94S WCI   3
MOSINEE        CLOUDY    18  12  79 W20G28    29.97R WCI   1
MARSHFIELD     CLOUDY    18  10  71 W15G24    29.98R WCI   4
WISC RAPIDS    CLOUDY    20  12  71 W15G23    30.03R WCI   6
STEVENS POINT  CLOUDY    18  10  71 W17G25    29.99S WCI   3
WAUPACA        CLOUDY    24  14  67 W13G21    30.01S
SHAWANO        CLOUDY    24  13  63 W14G20    29.97R
CLINTONVILLE   CLOUDY    23  12  63 W17G26    29.98S WCI   9
WAUTOMA        FLURRIES  21  14  74 W15       30.04R WCI   8
$$

WIZ038-039-048-051-080200-
FOX VALLEY

CITY           SKY/WX    TMP DP  RH WIND       PRES   REMARKS
NWS GREEN BAY  CLOUDY    25  15  66 W23G30    29.97S WCI  10
APPLETON       CLOUDY    21  12  68 W21       29.98R WCI   6
OSHKOSH        CLOUDY    22  12  65 W14G24    30.01R WCI   9
FOND DU LAC    CLOUDY    22  12  65 W14G21    30.03S WCI   9
$$

WIZ022-050-052-080200-
EAST CENTRAL WISCONSIN

CITY           SKY/WX    TMP DP  RH WIND       PRES   REMARKS
EPHRAIM        CLOUDY    24  14  66 W13G22    29.90S
WASHINGTON ISL CLOUDY    24  15  67 W14G26    29.89S
STURGEON BAY   CLOUDY    24  15  68 W15G24    29.95R
MANITOWOC      FLURRIES  24  15  68 MISG      30.00R
SHEBOYGAN      CLOUDY    22  13  68 W22G30    30.02R WCI   6
$$

LMZ563-521-522-541>543-080200-
LAKESHORE

STATION/POSITION TIME  TEMP    WIND        PRES    VSBY  WAVE
                       AIR SEA DIR/SP/G                  HT/PER
                 (UTC) (F)     (DEG/KT/KT) (MB)    (MI)  (FT/S)
SHEBOYGAN LKSHOR 0000   23     260/ 15/ 20 1017.2R
KEWAUNEE LKSHORE 0048   24     280/ 15/ 21 1014.3R
ALGOMA MARINA    0051          290/ 12/ 17   N/A
NORTHPORT PIER   0048   25     270/  8/ 19 1012.9R
SISTER BAY LKSHO 0036   26     300/ 26/ 30   N/A
CHAMBERS ISLAND  0040   24     220/ 12/ 26 1012.5S
MENOMINEE LKSHOR 0048   24     220/ 16/ 21 1012.8R
$$



USA.gov is the U.S. government's official web portal to all federal, state and local government web resources and services.